Location: Newark
(45.6833°N, 12.6333°E)
Time: 07:30:24
(UTC+00:00)

N. Korean satellite - Pass Details

Date: 25 November 2019
Orbit: 455 x 507 km, 97.2° (Epoch: 12 December)

Event Time Altitude Azimuth Distance (km) Brightness Sun altitude
Rises 17:19:20 0° 212° (SSW) 2,580 10.9 -18.6°
Reaches altitude 10° 17:22:19 10° 239° (WSW) 1,712 10.4 -19.1°
Maximum altitude 17:24:11 13° 270° (W) 1,513 10.1 -19.4°
Drops below altitude 10° 17:26:05 10° 301° (WNW) 1,726 10.0 -19.8°
Sets 17:29:08 0° 328° (NNW) 2,621 10.6 -20.3°
